TimeEST,TemperatureF,Dew PointF,Humidity,Sea Level PressureIn,VisibilityMPH,Wind Direction,Wind SpeedMPH,Gust SpeedMPH,PrecipitationIn,Events,Conditions,WindDirDegrees,DateUTC
12:53 AM,32.0,30.0,92,30.41,3.0,Calm,Calm,-,N/A,,Clear,0,2012-11-19 05:53:00
1:05 AM,30.2,30.2,100,30.38,2.5,East,3.5,-,N/A,,Clear,100,2012-11-19 06:05:00
1:39 AM,30.2,30.2,100,30.37,1.8,Calm,Calm,-,N/A,,Clear,0,2012-11-19 06:39:00
1:46 AM,30.2,30.2,100,30.37,3.0,Calm,Calm,-,N/A,,Clear,0,2012-11-19 06:46:00
1:53 AM,30.0,28.9,96,30.40,1.5,Calm,Calm,-,N/A,,Clear,0,2012-11-19 06:53:00
2:14 AM,26.6,26.6,100,30.37,2.0,Calm,Calm,-,N/A,,Clear,0,2012-11-19 07:14:00
2:46 AM,28.4,26.6,93,30.37,3.0,Calm,Calm,-,N/A,,Clear,0,2012-11-19 07:46:00
2:53 AM,28.0,26.1,92,30.41,3.0,Calm,Calm,-,N/A,,Clear,0,2012-11-19 07:53:00
3:53 AM,28.0,27.0,96,30.40,5.0,ESE,3.5,-,N/A,,Clear,120,2012-11-19 08:53:00
4:53 AM,28.0,26.1,92,30.38,6.0,Calm,Calm,-,N/A,,Clear,0,2012-11-19 09:53:00
5:53 AM,25.0,24.1,96,30.39,4.0,ENE,3.5,-,N/A,,Clear,60,2012-11-19 10:53:00
6:53 AM,25.0,24.1,96,30.38,5.0,ENE,3.5,-,N/A,,Clear,60,2012-11-19 11:53:00
7:53 AM,26.1,24.1,92,30.38,4.0,ENE,3.5,-,N/A,,Clear,60,2012-11-19 12:53:00
8:53 AM,25.0,23.0,92,30.38,5.0,East,4.6,-,N/A,,Clear,80,2012-11-19 13:53:00
9:37 AM,32.0,30.2,93,30.32,2.5,Calm,Calm,-,N/A,,Clear,0,2012-11-19 14:37:00
9:53 AM,34.0,32.0,92,30.36,3.0,Calm,Calm,-,N/A,,Clear,0,2012-11-19 14:53:00
10:53 AM,42.1,36.0,79,30.35,8.0,Variable,3.5,-,N/A,,Clear,0,2012-11-19 15:53:00
11:53 AM,46.9,34.0,61,30.32,10.0,Calm,Calm,-,N/A,,Clear,0,2012-11-19 16:53:00
12:53 PM,50.0,33.1,52,30.29,10.0,South,6.9,-,N/A,,Clear,170,2012-11-19 17:53:00
1:53 PM,48.0,32.0,54,30.28,10.0,South,6.9,-,N/A,,Clear,170,2012-11-19 18:53:00
2:53 PM,46.9,30.9,54,30.26,10.0,SE,4.6,-,N/A,,Clear,130,2012-11-19 19:53:00
3:53 PM,46.9,30.0,52,30.26,10.0,SE,4.6,-,N/A,,Mostly Cloudy,140,2012-11-19 20:53:00
4:53 PM,46.0,30.0,54,30.26,10.0,South,5.8,-,N/A,,Mostly Cloudy,170,2012-11-19 21:53:00
5:53 PM,43.0,33.1,68,30.25,10.0,SSE,3.5,-,N/A,,Mostly Cloudy,160,2012-11-19 22:53:00
6:53 PM,39.9,33.1,77,30.24,10.0,ESE,3.5,-,N/A,,Clear,110,2012-11-19 23:53:00
7:53 PM,39.9,35.1,83,30.22,10.0,ESE,3.5,-,N/A,,Clear,120,2012-11-20 00:53:00
8:53 PM,39.0,34.0,82,30.22,10.0,East,3.5,-,N/A,,Scattered Clouds,100,2012-11-20 01:53:00
9:53 PM,39.9,35.1,83,30.20,10.0,Calm,Calm,-,N/A,,Partly Cloudy,0,2012-11-20 02:53:00
10:53 PM,37.9,34.0,86,30.18,10.0,Calm,Calm,-,N/A,,Mostly Cloudy,0,2012-11-20 03:53:00
11:53 PM,37.0,34.0,89,30.17,10.0,ESE,3.5,-,N/A,,Overcast,120,2012-11-20 04:53:00